Regional Weather Roundup
Issued by NWS

Home | Current Version | Previous Version | Text Only | Print | Product List | Glossary On
Versions: 1 2 3 4 5 6 7 8 9 10 11 12 13 14 15 16 17 18 19 20 21 22 23 24 25 26 27 28 29 30 31 32 33 34 35 36 37 38 39 40 41 42 43 44 45 46 47 48 49 50
000
ASUS43 KTOP 231059
RWRKS

WEATHER ROUNDUP FOR KANSAS
NATIONAL WEATHER SERVICE GOODLAND KS
600 AM CDT TUE SEP 23 2014

NOTE:  "FAIR" INDICATES FEW OR NO CLOUDS BELOW 12,000 FEET WITH NO
SIGNIFICANT WEATHER AND/OR OBSTRUCTIONS TO VISIBILITY.

KSZ001>006-013>018-027>032-041>047-231200-
NORTHWEST KANSAS

CITY           SKY/WX    TMP DP  RH WIND       PRES   REMARKS
GOODLAND       PTCLDY    56  55  97 SE6       30.07R
HILL CITY      MOCLDY    59  56  89 S7        30.06S
RUSSELL        HVY RAIN  58  55  90 S8        30.14F FOG
$$

KSZ061>065-074>080-084>089-231200-
SOUTHWEST KANSAS

CITY           SKY/WX    TMP DP  RH WIND       PRES   REMARKS
DODGE CITY     CLOUDY    62  45  53 S16       30.12S
ELKHART          N/A     64  58  81 S13         N/A
GARDEN CITY    CLEAR     61  51  70 S13       30.07F
GREAT BEND     CLOUDY    57  52  82 E8        30.16F
LIBERAL        CLEAR     64  52  63 S13       30.13R
$$

KSZ066>073-081>083-090>101-231200-
SOUTHEAST KANSAS

CITY           SKY/WX    TMP DP  RH WIND       PRES   REMARKS
CHANUTE        PTCLDY    54  52  93 SE6       30.21R
COFFEYVILLE    MOCLDY    57  53  86 CALM      30.21R
HUTCHINSON     CLOUDY    62  51  67 S9        30.18R
NEWTON         MOCLDY    57  46  67 S8        30.22R
PARSONS        PTCLDY    58  54  86 S3        30.22R
WICHITA INTL   MOCLDY    58  51  78 S5        30.20R
WICHITA JABRA  PTCLDY    59  51  75 S8        30.19R
WINFIELD       CLEAR     56  52  86 SE7       30.20R
$$

KSZ007>012-019>026-033>040-048>060-102>105-231200-
NORTHEAST KANSAS

CITY           SKY/WX    TMP DP  RH WIND       PRES   REMARKS
CONCORDIA      LGT RAIN  57  56  96 SE14      30.12F
EMPORIA        PTCLDY    54  52  93 S8        30.19S
LAWRENCE       MOCLDY    52  49  89 SE6       30.21S
MANHATTAN      CLOUDY    61  53  75 S5        30.19R
OLATHE IND     MOCLDY    56  50  80 SE8       30.22S
OLATHE EXE     PTCLDY    55  51  86 S5        30.22S
SALINA         RAIN      60  55  83 NW7       30.21R
TOPEKA BILLARD MOCLDY    54  51  90 CALM      30.21R
TOPEKA FORBES  MOCLDY    55  51  86 SE5       30.20R
$$



USA.gov is the U.S. government's official web portal to all federal, state and local government web resources and services.